Погода в Борятине

Россия / Тульская область     53°24′54″N   38°09′34″E
темп.,
°C
ветер,
м/с
пор.,
м/с
влажн.,
%
обл.,
%
осадки,
мм/ч
давл.,
гПа
погр.,
м
15 апреля, чт
чт1500:00+13юв2452100 0.0 101654
03:00+11в3562100 0.0 101569
06:00+10юв3867100 0.0 1015151
09:00+13вюв2358100 0.0 1014192
12:00+17юв4545100 0.0 1014994
15:00+18юв4542100 0.0 10131900
18:00+11ю81186100 3.1 1015354
21:00+12ю61275100 4.0 1014345
16 апреля, пт
пт1600:00+11в4885100 0.7 1015286
03:00+9в3488100 0.8 101665
06:00+9в369081 0.0 1016121
09:00+12вюв4674100 0.0 1017390
12:00+15вюв6757100 2.5 10171201
15:00+16юв675587 4.1 10171398
18:00+12всв677999 3.4 1017241
21:00+10всв468937 5.0 1018148
17 апреля, сб
сб1700:00+9св3593100 0.1 1019101
03:00+9св51096100 0.4 1019238
06:00+9св61095100 0.6 1019374
09:00+10всв61187100 1.1 1019535
12:00+13всв61074100 0.3 10181106
15:00+15в81364100 1.6 10161472
18:00+10вюв61487100 3.3 1018956
21:00+9в5893100 3.9 1019434
18 апреля, вс
вс1800:00+9всв4793100 0.4 1018402
03:00+8всв1295100 2.0 1018165
06:00+7всв5892100 1.6 1018535
09:00+7в5892100 2.4 1019605
12:00+9в5779100 0.6 1020912
15:00+8всв3482100 1.1 1021739
18:00+8св688798 0.1 1022419
21:00+6всв599076 0.1 1023341
19 апреля, пн
пн1900:00+5св410905 0.0 1023317
03:00+4св4109231 0.0 1023299
06:00+4св5119140 0.0 1023410
09:00+7всв797861 0.0 1023748
12:00+10всв796396 0.0 10231429
15:00+9в71073100 0.1 10241073
18:00+9всв6970100 0.1 10241018
21:00+7всв4977100 0.1 1024671